This demonstration page uses our WeatherBlox Daily Observations layout. Learn more.

Left ArrowRight Arrow

Hourly Observations for October 18, 2015

Temp ( °F °C ) Dew Point ( °F °C ) Humidity (%) Winds ( mph kmh ) Pressure ( in mb ) Visibility ( mi km ) Precip ( " mm )
12:53 am 00:53 Mostly Cloudy 63 17.2 59 15 87 87 Calm 29.92 1013 10 16 0.03 0.76
1:53 am 01:53 Mostly Cloudy 61 16.1 57 13.9 87 87 Calm 29.92 1013 10 16 0.00 0.00
2:53 am 02:53 Cloudy 61 16.1 58 14.4 90 90 NW 6 9 29.92 1013 10 16 0.00 0.00
3:53 am 03:53 Cloudy 61 16.1 57 13.9 87 87 NNW 5 7 29.92 1013 10 16 0.00 0.00
4:53 am 04:53 Mostly Cloudy 60 15.6 57 13.9 90 90 Calm 29.92 1013 10 16 0.00 0.00
5:53 am 05:53 Clear 60 15.6 55 12.8 84 84 NW 3 6 29.92 1013 10 16 0.00 0.00
6:53 am 06:53 Clear 59 15 54 12.2 83 83 VRB 5 7 29.93 1014 10 16 0.00 0.00
7:53 am 07:53 Sunny 57 13.9 53 11.7 87 87 Calm 29.93 1014 10 16 0.00 0.00
8:53 am 08:53 Sunny 61 16.1 56 13.3 84 84 Calm 29.94 1014 10 16 0.00 0.00
9:53 am 09:53 Sunny 65 18.3 58 14.4 78 78 Calm 29.95 1014 10 16 0.00 0.00
10:53 am 10:53 Sunny 69 20.6 56 13.3 63 63 Calm 29.93 1014 10 16 0.00 0.00
11:53 am 11:53 Sunny 71 21.7 55 12.8 57 57 N 6 9 29.93 1013 10 16 0.00 0.00
12:53 pm 12:53 Sunny 72 22.2 55 12.8 55 55 VRB 6 9 29.91 1013 10 16 0.00 0.00
1:53 pm 13:53 Partly Cloudy 75 23.9 52 11.1 45 45 Calm 29.89 1012 10 16 0.00 0.00
2:53 pm 14:53 Partly Cloudy 75 23.9 51 10.6 43 43 W 6 9 29.88 1012 10 16 0.00 0.00
3:53 pm 15:53 Sunny 72 22.2 47 8.3 41 41 WSW 5 7 29.88 1012 10 16 0.00 0.00
4:53 pm 16:53 Partly Cloudy 75 23.9 47 8.3 37 37 S 6 9 29.88 1012 10 16 0.00 0.00
5:53 pm 17:53 Sunny 69 20.6 47 8.3 45 45 SE 16 26 29.90 1013 10 16 0.00 0.00
6:53 pm 18:53 Clear 65 18.3 50 10 59 59 S 12 19 29.92 1013 10 16 0.00 0.00
7:53 pm 19:53 Clear 63 17.2 50 10 63 63 Calm 29.93 1014 10 16 0.00 0.00
8:53 pm 20:53 Mostly Clear 62 16.7 51 10.6 67 67 Calm 29.95 1014 10 16 0.00 0.00
9:53 pm 21:53 Mostly Cloudy 59 15 50 10 72 72 SW 3 6 29.95 1014 10 16 0.00 0.00
10:53 pm 22:53 Clear 59 15 50 10 72 72 Calm 29.96 1014 10 16 0.00 0.00
11:53 pm 23:53 Clear 56 13.3 49 9.4 77 77 NW 3 6 29.96 1015 10 16 0.00 0.00

Powered by AerisWeather